This demonstration page uses our WeatherBlox Daily Observations layout. Learn more.

Left ArrowRight Arrow

Hourly Observations for July 20, 2018

Temp ( °F °C ) Dew Point ( °F °C ) Humidity (%) Winds ( mph kmh ) Pressure ( in mb ) Visibility ( mi km ) Precip ( " mm )
12:53 am 00:53 Clear 82 27.8 44 6.7 26 26 SSE 8 13 29.79 1009 10 16 0.00 0.00
1:53 am 01:53 Clear 78 25.6 45 7.2 31 31 SSE 8 13 29.80 1009 10 16 0.00 0.00
2:53 am 02:53 Clear 78 25.6 46 7.8 32 32 SSE 8 13 29.79 1009 10 16 0.00 0.00
3:53 am 03:53 Clear 76 24.4 46 7.8 35 35 SE 8 13 29.80 1009 10 16 0.00 0.00
4:53 am 04:53 Clear 73 22.8 48 8.9 41 41 ESE 6 9 29.81 1010 10 16 0.00 0.00
5:53 am 05:53 Clear 72 22.2 48 8.9 43 43 ESE 3 6 29.82 1010 10 16 0.00 0.00
11:53 am 11:53 Sunny 95 35 52 11.1 23 23 E 7 11 29.85 1011 10 16 0.00 0.00
12:53 pm 12:53 Sunny 98 36.7 50 10 20 20 SSE 13 20 29.85 1011 10 16 0.00 0.00
1:53 pm 13:53 Sunny 101 38.3 49 9.4 17 17 SE 10 17 29.83 1010 10 16 0.00 0.00
2:53 pm 14:53 Sunny 102 38.9 49 9.4 17 17 SE 15 24 29.81 1009 10 16 0.00 0.00
3:15 pm 15:15 Sunny 103 39.4 49 9.4 16 16 S 16 26 29.68 1005 10 16 0.00 0.00
3:53 pm 15:53 Sunny 103 39.4 48 8.9 16 16 S 9 15 29.78 1009 10 16 0.00 0.00
4:53 pm 16:53 Sunny 104 40 48 8.9 15 15 SE 9 15 29.77 1008 10 16 0.00 0.00
5:53 pm 17:53 Sunny 103 39.4 48 8.9 16 16 SE 16 26 29.76 1008 10 16 0.00 0.00
6:53 pm 18:53 Sunny 102 38.9 47 8.3 15 15 SE 16 26 29.76 1008 10 16 0.00 0.00
7:53 pm 19:53 Sunny 100 37.8 48 8.9 17 17 SE 13 20 29.75 1008 10 16 0.00 0.00
8:53 pm 20:53 Sunny 97 36.1 49 9.4 20 20 SE 12 19 29.77 1008 10 16 0.00 0.00
9:53 pm 21:53 Clear 92 33.3 48 8.9 22 22 SE 9 15 29.79 1009 10 16 0.00 0.00
10:53 pm 22:53 Clear 87 30.6 47 8.3 25 25 SSE 8 13 29.83 1010 10 16 0.00 0.00
11:53 pm 23:53 Clear 86 30 45 7.2 24 24 SSE 12 19 29.84 1011 10 16 0.00 0.00

Powered by AerisWeather